Year,Month,Day,Hour,Minute,Value (Times are PST for temperature in C)
2009,04,24,00,00,6.80
2009,04,24,00,01,6.70
2009,04,24,00,02,6.70
2009,04,24,00,03,6.60
2009,04,24,00,04,6.50
2009,04,24,00,05,6.40
2009,04,24,00,06,6.40
2009,04,24,00,07,6.30
2009,04,24,00,08,6.30
2009,04,24,00,09,6.30
2009,04,24,00,10,6.30
2009,04,24,00,11,6.30
2009,04,24,00,12,6.20
2009,04,24,00,13,6.20
2009,04,24,00,14,6.20
2009,04,24,00,15,6.10
2009,04,24,00,16,6.10
2009,04,24,00,17,6.00
2009,04,24,00,18,6.00
2009,04,24,00,19,5.90
2009,04,24,00,20,5.80
2009,04,24,00,21,5.80
2009,04,24,00,22,5.70
2009,04,24,00,23,5.70
2009,04,24,00,24,5.60
2009,04,24,00,25,5.60
2009,04,24,00,26,5.50
2009,04,24,00,27,5.50
2009,04,24,00,28,5.40
2009,04,24,00,29,5.40
2009,04,24,00,30,5.30
2009,04,24,00,31,5.20
2009,04,24,00,32,5.20
2009,04,24,00,33,5.20
2009,04,24,00,34,5.20
2009,04,24,00,35,5.20
2009,04,24,00,36,5.10
2009,04,24,00,37,5.10
2009,04,24,00,38,5.00
2009,04,24,00,39,5.00
2009,04,24,00,40,4.90
2009,04,24,00,41,4.90
2009,04,24,00,42,4.90
2009,04,24,00,43,4.80
2009,04,24,00,44,4.80
2009,04,24,00,45,4.80
2009,04,24,00,46,4.70
2009,04,24,00,47,4.70
2009,04,24,00,48,4.70
2009,04,24,00,49,4.70
2009,04,24,00,50,4.80
2009,04,24,00,51,4.90
2009,04,24,00,52,4.90
2009,04,24,00,53,5.00
2009,04,24,00,54,5.00
2009,04,24,00,55,5.00
2009,04,24,00,56,5.00
2009,04,24,00,57,5.00
2009,04,24,00,58,5.00
2009,04,24,00,59,5.00
2009,04,24,01,00,4.90
2009,04,24,01,01,4.90
2009,04,24,01,02,4.90
2009,04,24,01,03,4.80
2009,04,24,01,04,4.80
2009,04,24,01,05,4.80
2009,04,24,01,06,4.80
2009,04,24,01,07,4.80
2009,04,24,01,08,4.80
2009,04,24,01,09,4.80
2009,04,24,01,10,4.80
2009,04,24,01,11,4.80
2009,04,24,01,12,4.80
2009,04,24,01,13,4.80
2009,04,24,01,14,4.70
2009,04,24,01,15,4.70
2009,04,24,01,16,4.70
2009,04,24,01,17,4.60
2009,04,24,01,18,4.60
2009,04,24,01,19,4.60
2009,04,24,01,20,4.60
2009,04,24,01,21,4.60
2009,04,24,01,22,4.70
2009,04,24,01,23,4.70
2009,04,24,01,24,4.70
2009,04,24,01,25,4.80
2009,04,24,01,26,4.80
2009,04,24,01,27,4.90
2009,04,24,01,28,4.90
2009,04,24,01,29,5.00
2009,04,24,01,30,5.10
2009,04,24,01,31,5.20
2009,04,24,01,32,5.30
2009,04,24,01,33,5.40
2009,04,24,01,34,5.50
2009,04,24,01,35,5.60
2009,04,24,01,36,5.70
2009,04,24,01,37,5.80
2009,04,24,01,38,5.80
2009,04,24,01,39,5.90
2009,04,24,01,40,6.00
2009,04,24,01,41,6.00
2009,04,24,01,42,6.10
2009,04,24,01,43,6.20
2009,04,24,01,44,6.30
2009,04,24,01,45,6.40
2009,04,24,01,46,6.50
2009,04,24,01,47,6.60
2009,04,24,01,48,6.70
2009,04,24,01,49,6.80
2009,04,24,01,50,6.80
2009,04,24,01,51,6.90
2009,04,24,01,52,6.90
2009,04,24,01,53,7.00
2009,04,24,01,54,7.00
2009,04,24,01,55,7.00
2009,04,24,01,56,7.00
2009,04,24,01,57,7.00
2009,04,24,01,58,6.90
2009,04,24,01,59,7.00
2009,04,24,02,00,6.90
2009,04,24,02,01,6.90
2009,04,24,02,02,6.90
2009,04,24,02,03,6.90
2009,04,24,02,04,6.90
2009,04,24,02,05,6.90
2009,04,24,02,06,6.80
2009,04,24,02,07,6.80
2009,04,24,02,08,6.70
2009,04,24,02,09,6.60
2009,04,24,02,10,6.50
2009,04,24,02,11,6.50
2009,04,24,02,12,6.40
2009,04,24,02,13,6.40
2009,04,24,02,14,6.30
2009,04,24,02,15,6.30
2009,04,24,02,16,6.30
2009,04,24,02,17,6.20
2009,04,24,02,18,6.20
2009,04,24,02,19,6.10
2009,04,24,02,20,6.00
2009,04,24,02,21,6.00
2009,04,24,02,22,5.90
2009,04,24,02,23,5.80
2009,04,24,02,24,5.80
2009,04,24,02,25,5.70
2009,04,24,02,26,5.60
2009,04,24,02,27,5.50
2009,04,24,02,28,5.50
2009,04,24,02,29,5.40
2009,04,24,02,30,5.30
2009,04,24,02,31,5.30
2009,04,24,02,32,5.30
2009,04,24,02,33,5.20
2009,04,24,02,34,5.20
2009,04,24,02,35,5.20
2009,04,24,02,36,5.10
2009,04,24,02,37,5.10
2009,04,24,02,38,5.10
2009,04,24,02,39,5.00
2009,04,24,02,40,4.90
2009,04,24,02,41,4.90
2009,04,24,02,42,4.90
2009,04,24,02,43,4.90
2009,04,24,02,44,4.90
2009,04,24,02,45,4.90
2009,04,24,02,46,4.80
2009,04,24,02,47,4.80
2009,04,24,02,48,4.80
2009,04,24,02,49,4.70
2009,04,24,02,50,4.70
2009,04,24,02,51,4.60
2009,04,24,02,52,4.60
2009,04,24,02,53,4.50
2009,04,24,02,54,4.50
2009,04,24,02,55,4.40
2009,04,24,02,56,4.40
2009,04,24,02,57,4.40
2009,04,24,02,58,4.30
2009,04,24,02,59,4.30
2009,04,24,03,00,4.30
2009,04,24,03,01,4.20
2009,04,24,03,02,4.20
2009,04,24,03,03,4.20
2009,04,24,03,04,4.10
2009,04,24,03,05,4.10
2009,04,24,03,06,4.10
2009,04,24,03,07,4.00
2009,04,24,03,08,4.00
2009,04,24,03,09,4.00
2009,04,24,03,10,3.90
2009,04,24,03,11,3.90
2009,04,24,03,12,3.90
2009,04,24,03,13,3.90
2009,04,24,03,14,3.80
2009,04,24,03,15,3.80
2009,04,24,03,16,3.80
2009,04,24,03,17,3.70
2009,04,24,03,18,3.70
2009,04,24,03,19,3.70
2009,04,24,03,20,3.60
2009,04,24,03,21,3.60
2009,04,24,03,22,3.60
2009,04,24,03,23,3.60
2009,04,24,03,24,3.60
2009,04,24,03,25,3.50
2009,04,24,03,26,3.50
2009,04,24,03,27,3.50
2009,04,24,03,28,3.40
2009,04,24,03,29,3.40
2009,04,24,03,30,3.30
2009,04,24,03,31,3.30
2009,04,24,03,32,3.30
2009,04,24,03,33,3.20
2009,04,24,03,34,3.20
2009,04,24,03,35,3.20
2009,04,24,03,36,3.20
2009,04,24,03,37,3.20
2009,04,24,03,38,3.20
2009,04,24,03,39,3.20
2009,04,24,03,40,3.20
2009,04,24,03,41,3.20
2009,04,24,03,42,3.20
2009,04,24,03,43,3.20
2009,04,24,03,44,3.20
2009,04,24,03,45,3.20
2009,04,24,03,46,3.20
2009,04,24,03,47,3.20
2009,04,24,03,48,3.20
2009,04,24,03,49,3.20
2009,04,24,03,50,3.20
2009,04,24,03,51,3.20
2009,04,24,03,52,3.10
2009,04,24,03,53,3.10
2009,04,24,03,54,3.10
2009,04,24,03,55,3.10
2009,04,24,03,56,3.10
2009,04,24,03,57,3.10
2009,04,24,03,58,3.00
2009,04,24,03,59,3.00
2009,04,24,04,00,3.00
2009,04,24,04,01,3.00
2009,04,24,04,02,2.90
2009,04,24,04,03,2.90
2009,04,24,04,04,2.90
2009,04,24,04,05,2.80
2009,04,24,04,06,2.80
2009,04,24,04,07,2.80
2009,04,24,04,08,2.70
2009,04,24,04,09,2.70
2009,04,24,04,10,2.60
2009,04,24,04,11,2.60
2009,04,24,04,12,2.50
2009,04,24,04,13,2.50
2009,04,24,04,14,2.50
2009,04,24,04,15,2.50
2009,04,24,04,16,2.40
2009,04,24,04,17,2.40
2009,04,24,04,18,2.40
2009,04,24,04,19,2.40
2009,04,24,04,20,2.40
2009,04,24,04,21,2.40
2009,04,24,04,22,2.30
2009,04,24,04,23,2.30
2009,04,24,04,24,2.30
2009,04,24,04,25,2.30
2009,04,24,04,26,2.30
2009,04,24,04,27,2.30
2009,04,24,04,28,2.30
2009,04,24,04,29,2.30
2009,04,24,04,30,2.20
2009,04,24,04,31,2.20
2009,04,24,04,32,2.10
2009,04,24,04,33,2.10
2009,04,24,04,34,2.00
2009,04,24,04,35,1.90
2009,04,24,04,36,1.90
2009,04,24,04,37,1.90
2009,04,24,04,38,1.80
2009,04,24,04,39,1.80
2009,04,24,04,40,1.80
2009,04,24,04,41,1.80
2009,04,24,04,42,1.80
2009,04,24,04,43,1.80
2009,04,24,04,44,1.80
2009,04,24,04,45,1.80
2009,04,24,04,46,1.70
2009,04,24,04,47,1.70
2009,04,24,04,48,1.70
2009,04,24,04,49,1.60
2009,04,24,04,50,1.60
2009,04,24,04,51,1.60
2009,04,24,04,52,1.50
2009,04,24,04,53,1.50
2009,04,24,04,54,1.50
2009,04,24,04,55,1.50
2009,04,24,04,56,1.50
2009,04,24,04,57,1.50
2009,04,24,04,58,1.50
2009,04,24,04,59,1.50
2009,04,24,05,00,1.50
2009,04,24,05,01,1.50
2009,04,24,05,02,1.50
2009,04,24,05,03,1.50
2009,04,24,05,04,1.50
2009,04,24,05,05,1.50
2009,04,24,05,06,1.50
2009,04,24,05,07,1.50
2009,04,24,05,08,1.50
2009,04,24,05,09,1.50
2009,04,24,05,10,1.50
2009,04,24,05,11,1.40
2009,04,24,05,12,1.40
2009,04,24,05,13,1.40
2009,04,24,05,14,1.40
2009,04,24,05,15,1.30
2009,04,24,05,16,1.30
2009,04,24,05,17,1.30
2009,04,24,05,18,1.20
2009,04,24,05,19,1.20
2009,04,24,05,20,1.20
2009,04,24,05,21,1.20
2009,04,24,05,22,1.20
2009,04,24,05,23,1.10
2009,04,24,05,24,1.10
2009,04,24,05,25,1.10
2009,04,24,05,26,1.10
2009,04,24,05,27,1.00
2009,04,24,05,28,1.00
2009,04,24,05,29,1.00
2009,04,24,05,30,0.90
2009,04,24,05,31,0.90
2009,04,24,05,32,0.90
2009,04,24,05,33,0.80
2009,04,24,05,34,0.80
2009,04,24,05,35,0.80
2009,04,24,05,36,0.80
2009,04,24,05,37,0.80
2009,04,24,05,38,0.80
2009,04,24,05,39,0.80
2009,04,24,05,40,0.70
2009,04,24,05,41,0.70
2009,04,24,05,42,0.70
2009,04,24,05,43,0.70
2009,04,24,05,44,0.70
2009,04,24,05,45,0.70
2009,04,24,05,46,0.70
2009,04,24,05,47,0.70
2009,04,24,05,48,0.70
2009,04,24,05,49,0.70
2009,04,24,05,50,0.70
2009,04,24,05,51,0.70
2009,04,24,05,52,0.70
2009,04,24,05,53,0.70
2009,04,24,05,54,0.60
2009,04,24,05,55,0.60
2009,04,24,05,56,0.60
2009,04,24,05,57,0.60
2009,04,24,05,58,0.60
2009,04,24,05,59,0.50
2009,04,24,06,00,0.50
2009,04,24,06,01,0.50
2009,04,24,06,02,0.50
2009,04,24,06,03,0.50
2009,04,24,06,04,0.50
2009,04,24,06,05,0.50
2009,04,24,06,06,0.50
2009,04,24,06,07,0.50
2009,04,24,06,08,0.60
2009,04,24,06,09,0.60
2009,04,24,06,10,0.60
2009,04,24,06,11,0.60
2009,04,24,06,12,0.60
2009,04,24,06,13,0.60
2009,04,24,06,14,0.60
2009,04,24,06,15,0.60
2009,04,24,06,16,0.60
2009,04,24,06,17,0.60
2009,04,24,06,18,0.60
2009,04,24,06,19,0.60
2009,04,24,06,20,0.70
2009,04,24,06,21,0.70
2009,04,24,06,22,0.70
2009,04,24,06,23,0.70
2009,04,24,06,24,0.70
2009,04,24,06,25,0.80
2009,04,24,06,26,0.80
2009,04,24,06,27,0.80
2009,04,24,06,28,0.80
2009,04,24,06,29,0.80
2009,04,24,06,30,0.80
2009,04,24,06,31,0.80
2009,04,24,06,32,0.80
2009,04,24,06,33,0.80
2009,04,24,06,34,0.80
2009,04,24,06,35,0.80
2009,04,24,06,36,0.80
2009,04,24,06,37,0.80
2009,04,24,06,38,0.80
2009,04,24,06,39,0.80
2009,04,24,06,40,0.90
2009,04,24,06,41,0.90
2009,04,24,06,42,0.90
2009,04,24,06,43,0.90
2009,04,24,06,44,0.90
2009,04,24,06,45,0.90
2009,04,24,06,46,0.90
2009,04,24,06,47,1.00
2009,04,24,06,48,1.00
2009,04,24,06,49,1.00
2009,04,24,06,50,1.10
2009,04,24,06,51,1.10
2009,04,24,06,52,1.20
2009,04,24,06,53,1.20
2009,04,24,06,54,1.20
2009,04,24,06,55,1.30
2009,04,24,06,56,1.30
2009,04,24,06,57,1.30
2009,04,24,06,58,1.40
2009,04,24,06,59,1.40
2009,04,24,07,00,1.50
2009,04,24,07,01,1.50
2009,04,24,07,02,1.60
2009,04,24,07,03,1.60
2009,04,24,07,04,1.60
2009,04,24,07,05,1.70
2009,04,24,07,06,1.70
2009,04,24,07,07,1.70
2009,04,24,07,08,1.80
2009,04,24,07,09,1.80
2009,04,24,07,10,1.80
2009,04,24,07,11,1.90
2009,04,24,07,12,1.90
2009,04,24,07,13,2.00
2009,04,24,07,14,2.10
2009,04,24,07,15,2.20
2009,04,24,07,16,2.20
2009,04,24,07,17,2.30
2009,04,24,07,18,2.40
2009,04,24,07,19,2.50
2009,04,24,07,20,2.70
2009,04,24,07,21,2.80
2009,04,24,07,22,2.90
2009,04,24,07,23,3.00
2009,04,24,07,24,3.20
2009,04,24,07,25,3.30
2009,04,24,07,26,3.40
2009,04,24,07,27,3.40
2009,04,24,07,28,3.50
2009,04,24,07,29,3.50
2009,04,24,07,30,3.60
2009,04,24,07,31,3.60
2009,04,24,07,32,3.70
2009,04,24,07,33,3.70
2009,04,24,07,34,3.70
2009,04,24,07,35,3.70
2009,04,24,07,36,3.70
2009,04,24,07,37,3.80
2009,04,24,07,38,3.80
2009,04,24,07,39,3.80
2009,04,24,07,40,3.90
2009,04,24,07,41,3.90
2009,04,24,07,42,4.00
2009,04,24,07,43,4.10
2009,04,24,07,44,4.20
2009,04,24,07,45,4.20
2009,04,24,07,46,4.30
2009,04,24,07,47,4.40
2009,04,24,07,48,4.50
2009,04,24,07,49,4.60
2009,04,24,07,50,4.60
2009,04,24,07,51,4.70
2009,04,24,07,52,4.80
2009,04,24,07,53,4.90
2009,04,24,07,54,5.00
2009,04,24,07,55,5.10
2009,04,24,07,56,5.20
2009,04,24,07,57,5.30
2009,04,24,07,58,5.40
2009,04,24,07,59,5.50
2009,04,24,08,00,5.60
2009,04,24,08,01,5.70
2009,04,24,08,02,5.80
2009,04,24,08,03,5.90
2009,04,24,08,04,6.00
2009,04,24,08,05,6.10
2009,04,24,08,06,6.20
2009,04,24,08,07,6.30
2009,04,24,08,08,6.50
2009,04,24,08,09,6.60
2009,04,24,08,10,6.80
2009,04,24,08,11,6.90
2009,04,24,08,12,7.00
2009,04,24,08,13,7.10
2009,04,24,08,14,7.20
2009,04,24,08,15,7.30
2009,04,24,08,16,7.40
2009,04,24,08,17,7.50
2009,04,24,08,18,7.50
2009,04,24,08,19,7.60
2009,04,24,08,20,7.70
2009,04,24,08,21,7.70
2009,04,24,08,22,7.80
2009,04,24,08,23,7.80
2009,04,24,08,24,7.90
2009,04,24,08,25,7.90
2009,04,24,08,26,8.00
2009,04,24,08,27,8.00
2009,04,24,08,28,8.10
2009,04,24,08,29,8.20
2009,04,24,08,30,8.20
2009,04,24,08,31,8.30
2009,04,24,08,32,8.30
2009,04,24,08,33,8.40
2009,04,24,08,34,8.40
2009,04,24,08,35,8.50
2009,04,24,08,36,8.50
2009,04,24,08,37,8.60
2009,04,24,08,38,8.60
2009,04,24,08,39,8.60
2009,04,24,08,40,8.60
2009,04,24,08,41,8.60
2009,04,24,08,42,8.70
2009,04,24,08,43,8.70
2009,04,24,08,44,8.70
2009,04,24,08,45,8.70
2009,04,24,08,46,8.80
2009,04,24,08,47,8.80
2009,04,24,08,48,8.70
2009,04,24,08,49,8.60
2009,04,24,08,50,8.60
2009,04,24,08,51,8.50
2009,04,24,08,52,8.50
2009,04,24,08,53,8.50
2009,04,24,08,54,8.50
2009,04,24,08,55,8.60
2009,04,24,08,56,8.60
2009,04,24,08,57,8.70
2009,04,24,08,58,8.70
2009,04,24,08,59,8.70
2009,04,24,09,00,8.80
2009,04,24,09,01,8.80
2009,04,24,09,02,8.80
2009,04,24,09,03,8.80
2009,04,24,09,04,8.80
2009,04,24,09,05,8.80
2009,04,24,09,06,8.80
2009,04,24,09,07,8.80
2009,04,24,09,08,8.80
2009,04,24,09,09,8.90
2009,04,24,09,10,8.90
2009,04,24,09,11,8.90
2009,04,24,09,12,8.90
2009,04,24,09,13,8.90
2009,04,24,09,14,8.90
2009,04,24,09,15,8.90
2009,04,24,09,16,8.90
2009,04,24,09,17,8.80
2009,04,24,09,18,8.80
2009,04,24,09,19,8.80
2009,04,24,09,20,8.80
2009,04,24,09,21,8.80
2009,04,24,09,22,8.80
2009,04,24,09,23,8.80
2009,04,24,09,24,8.90
2009,04,24,09,25,8.90
2009,04,24,09,26,8.90
2009,04,24,09,27,8.90
2009,04,24,09,28,8.90
2009,04,24,09,29,8.80
2009,04,24,09,30,8.80
2009,04,24,09,31,8.80
2009,04,24,09,32,8.90
2009,04,24,09,33,8.90
2009,04,24,09,34,9.00
2009,04,24,09,35,9.00
2009,04,24,09,36,9.00
2009,04,24,09,37,8.90
2009,04,24,09,38,8.90
2009,04,24,09,39,8.90
2009,04,24,09,40,8.90
2009,04,24,09,41,8.80
2009,04,24,09,42,8.80
2009,04,24,09,43,8.70
2009,04,24,09,44,8.70
2009,04,24,09,45,8.80
2009,04,24,09,46,8.80
2009,04,24,09,47,8.80
2009,04,24,09,48,8.80
2009,04,24,09,49,8.80
2009,04,24,09,50,8.80
2009,04,24,09,51,8.90
2009,04,24,09,52,8.90
2009,04,24,09,53,9.00
2009,04,24,09,54,9.00
2009,04,24,09,55,9.00
2009,04,24,09,56,9.00
2009,04,24,09,57,9.00
2009,04,24,09,58,8.90
2009,04,24,09,59,9.00
2009,04,24,10,00,9.00
2009,04,24,10,01,9.10
2009,04,24,10,02,9.20
2009,04,24,10,03,9.20
2009,04,24,10,04,9.30
2009,04,24,10,05,9.30
2009,04,24,10,06,9.30
2009,04,24,10,07,9.30
2009,04,24,10,08,9.30
2009,04,24,10,09,9.30
2009,04,24,10,10,9.30
2009,04,24,10,11,9.20
2009,04,24,10,12,9.20
2009,04,24,10,13,9.20
2009,04,24,10,14,9.20
2009,04,24,10,15,9.20
2009,04,24,10,16,9.20
2009,04,24,10,17,9.20
2009,04,24,10,18,9.20
2009,04,24,10,19,9.30
2009,04,24,10,20,9.30
2009,04,24,10,21,9.30
2009,04,24,10,22,9.30
2009,04,24,10,23,9.30
2009,04,24,10,24,9.20
2009,04,24,10,25,9.10
2009,04,24,10,26,9.10
2009,04,24,10,27,9.10
2009,04,24,10,28,9.10
2009,04,24,10,29,9.10
2009,04,24,10,30,9.10
2009,04,24,10,31,9.10
2009,04,24,10,32,9.20
2009,04,24,10,33,9.20
2009,04,24,10,34,9.30
2009,04,24,10,35,9.30
2009,04,24,10,36,9.40
2009,04,24,10,37,9.40
2009,04,24,10,38,9.40
2009,04,24,10,39,9.40
2009,04,24,10,40,9.40
2009,04,24,10,41,9.40
2009,04,24,10,42,9.40
2009,04,24,10,43,9.40
2009,04,24,10,44,9.40
2009,04,24,10,45,9.40
2009,04,24,10,46,9.40
2009,04,24,10,47,9.50
2009,04,24,10,48,9.50
2009,04,24,10,49,9.60
2009,04,24,10,50,9.70
2009,04,24,10,51,9.80
2009,04,24,10,52,9.90
2009,04,24,10,53,9.90
2009,04,24,10,54,10.00
2009,04,24,10,55,10.00
2009,04,24,10,56,10.00
2009,04,24,10,57,10.00
2009,04,24,10,58,10.00
2009,04,24,10,59,9.90
2009,04,24,11,00,9.90
2009,04,24,11,01,9.90
2009,04,24,11,02,10.00
2009,04,24,11,03,9.90
2009,04,24,11,04,9.80
2009,04,24,11,05,9.80
2009,04,24,11,06,9.80
2009,04,24,11,07,9.70
2009,04,24,11,08,9.70
2009,04,24,11,09,9.70
2009,04,24,11,10,9.70
2009,04,24,11,11,9.70
2009,04,24,11,12,9.80
2009,04,24,11,13,9.80
2009,04,24,11,14,9.80
2009,04,24,11,15,9.90
2009,04,24,11,16,9.90
2009,04,24,11,17,9.90
2009,04,24,11,18,9.90
2009,04,24,11,19,9.90
2009,04,24,11,20,9.90
2009,04,24,11,21,9.80
2009,04,24,11,22,9.70
2009,04,24,11,23,9.70
2009,04,24,11,24,9.70
2009,04,24,11,25,9.70
2009,04,24,11,26,9.80
2009,04,24,11,27,9.80
2009,04,24,11,28,9.90
2009,04,24,11,29,9.90
2009,04,24,11,30,9.90
2009,04,24,11,31,9.90
2009,04,24,11,32,9.90
2009,04,24,11,33,9.90
2009,04,24,11,34,9.90
2009,04,24,11,35,9.90
2009,04,24,11,36,10.00
2009,04,24,11,37,10.00
2009,04,24,11,38,10.10
2009,04,24,11,39,10.10
2009,04,24,11,40,10.20
2009,04,24,11,41,10.10
2009,04,24,11,42,10.10
2009,04,24,11,43,10.00
2009,04,24,11,44,10.00
2009,04,24,11,45,10.00
2009,04,24,11,46,10.00
2009,04,24,11,47,10.10
2009,04,24,11,48,10.10
2009,04,24,11,49,10.10
2009,04,24,11,50,10.10
2009,04,24,11,51,10.10
2009,04,24,11,52,10.10
2009,04,24,11,53,10.20
2009,04,24,11,54,10.20
2009,04,24,11,55,10.20
2009,04,24,11,56,10.30
2009,04,24,11,57,10.40
2009,04,24,11,58,10.50
2009,04,24,11,59,10.60
2009,04,24,12,00,10.60
2009,04,24,12,01,10.70
2009,04,24,12,02,10.70
2009,04,24,12,03,10.70
2009,04,24,12,04,10.70
2009,04,24,12,05,10.70
2009,04,24,12,06,10.70
2009,04,24,12,07,10.70
2009,04,24,12,08,10.70
2009,04,24,12,09,10.70
2009,04,24,12,10,10.70
2009,04,24,12,11,10.60
2009,04,24,12,12,10.60
2009,04,24,12,13,10.60
2009,04,24,12,14,10.60
2009,04,24,12,15,10.60
2009,04,24,12,16,10.60
2009,04,24,12,17,10.70
2009,04,24,12,18,10.70
2009,04,24,12,19,10.70
2009,04,24,12,20,10.70
2009,04,24,12,21,10.80
2009,04,24,12,22,10.80
2009,04,24,12,23,10.70
2009,04,24,12,24,10.70
2009,04,24,12,25,10.60
2009,04,24,12,26,10.60
2009,04,24,12,27,10.60
2009,04,24,12,28,10.70
2009,04,24,12,29,10.70
2009,04,24,12,30,10.80
2009,04,24,12,31,10.80
2009,04,24,12,32,10.90
2009,04,24,12,33,11.00
2009,04,24,12,34,11.00
2009,04,24,12,35,11.10
2009,04,24,12,36,11.10
2009,04,24,12,37,11.10
2009,04,24,12,38,11.10
2009,04,24,12,39,11.10
2009,04,24,12,40,11.20
2009,04,24,12,41,11.20
2009,04,24,12,42,11.20
2009,04,24,12,43,11.30
2009,04,24,12,44,11.30
2009,04,24,12,45,11.30
2009,04,24,12,46,11.40
2009,04,24,12,47,11.50
2009,04,24,12,48,11.60
2009,04,24,12,49,11.70
2009,04,24,12,50,11.80
2009,04,24,12,51,11.90
2009,04,24,12,52,11.90
2009,04,24,12,53,11.90
2009,04,24,12,54,11.80
2009,04,24,12,55,11.70
2009,04,24,12,56,11.70
2009,04,24,12,57,11.70
2009,04,24,12,58,11.60
2009,04,24,12,59,11.60
2009,04,24,13,00,11.60
2009,04,24,13,01,11.60
2009,04,24,13,02,11.60
2009,04,24,13,03,11.60
2009,04,24,13,04,11.60
2009,04,24,13,05,11.60
2009,04,24,13,06,11.70
2009,04,24,13,07,11.70
2009,04,24,13,08,11.60
2009,04,24,13,09,11.60
2009,04,24,13,10,11.60
2009,04,24,13,11,11.60
2009,04,24,13,12,11.70
2009,04,24,13,13,11.70
2009,04,24,13,14,11.80
2009,04,24,13,15,11.90
2009,04,24,13,16,11.90
2009,04,24,13,17,12.00
2009,04,24,13,18,12.10
2009,04,24,13,19,12.10
2009,04,24,13,20,12.10
2009,04,24,13,21,12.10
2009,04,24,13,22,12.10
2009,04,24,13,23,12.00
2009,04,24,13,24,12.00
2009,04,24,13,25,11.90
2009,04,24,13,26,11.80
2009,04,24,13,27,11.80
2009,04,24,13,28,11.80
2009,04,24,13,29,11.80
2009,04,24,13,30,11.80
2009,04,24,13,31,11.80
2009,04,24,13,32,11.80
2009,04,24,13,33,11.90
2009,04,24,13,34,11.90
2009,04,24,13,35,11.90
2009,04,24,13,36,11.90
2009,04,24,13,37,11.90
2009,04,24,13,38,11.90
2009,04,24,13,39,12.00
2009,04,24,13,40,12.00
2009,04,24,13,41,11.90
2009,04,24,13,42,11.90
2009,04,24,13,43,11.90
2009,04,24,13,44,11.90
2009,04,24,13,45,11.90
2009,04,24,13,46,12.00
2009,04,24,13,47,12.10
2009,04,24,13,48,12.10
2009,04,24,13,49,12.20
2009,04,24,13,50,12.20
2009,04,24,13,51,12.20
2009,04,24,13,52,12.20
2009,04,24,13,53,12.20
2009,04,24,13,54,12.20
2009,04,24,13,55,12.30
2009,04,24,13,56,12.30
2009,04,24,13,57,12.30
2009,04,24,13,58,12.40
2009,04,24,13,59,12.40
2009,04,24,14,00,12.40
2009,04,24,14,01,12.50
2009,04,24,14,02,12.40
2009,04,24,14,03,12.40
2009,04,24,14,04,12.40
2009,04,24,14,05,12.40
2009,04,24,14,06,12.40
2009,04,24,14,07,12.40
2009,04,24,14,08,12.40
2009,04,24,14,09,12.50
2009,04,24,14,10,12.60
2009,04,24,14,11,12.70
2009,04,24,14,12,12.80
2009,04,24,14,13,12.80
2009,04,24,14,14,12.90
2009,04,24,14,15,12.90
2009,04,24,14,16,12.90
2009,04,24,14,17,12.80
2009,04,24,14,18,12.70
2009,04,24,14,19,12.70
2009,04,24,14,20,12.70
2009,04,24,14,21,12.80
2009,04,24,14,22,12.80
2009,04,24,14,23,12.80
2009,04,24,14,24,12.70
2009,04,24,14,25,12.70
2009,04,24,14,26,12.70
2009,04,24,14,27,12.70
2009,04,24,14,28,12.70
2009,04,24,14,29,12.80
2009,04,24,14,30,12.80
2009,04,24,14,31,12.90
2009,04,24,14,32,12.90
2009,04,24,14,33,12.80
2009,04,24,14,34,12.80
2009,04,24,14,35,12.80
2009,04,24,14,36,12.70
2009,04,24,14,37,12.70
2009,04,24,14,38,12.70
2009,04,24,14,39,12.70
2009,04,24,14,40,12.70
2009,04,24,14,41,12.70
2009,04,24,14,42,12.70
2009,04,24,14,43,12.70
2009,04,24,14,44,12.60
2009,04,24,14,45,12.60
2009,04,24,14,46,12.60
2009,04,24,14,47,12.50
2009,04,24,14,48,12.50
2009,04,24,14,49,12.40
2009,04,24,14,50,12.40
2009,04,24,14,51,12.40
2009,04,24,14,52,12.40
2009,04,24,14,53,12.50
2009,04,24,14,54,12.60
2009,04,24,14,55,12.60
2009,04,24,14,56,12.60
2009,04,24,14,57,12.60
2009,04,24,14,58,12.60
2009,04,24,14,59,12.70
2009,04,24,15,00,12.70
2009,04,24,15,01,12.70
2009,04,24,15,02,12.70
2009,04,24,15,03,12.70
2009,04,24,15,04,12.70
2009,04,24,15,05,12.70
2009,04,24,15,06,12.70
2009,04,24,15,07,12.70
2009,04,24,15,08,12.70
2009,04,24,15,09,12.80
2009,04,24,15,10,12.80
2009,04,24,15,11,12.90
2009,04,24,15,12,12.90
2009,04,24,15,13,12.90
2009,04,24,15,14,12.90
2009,04,24,15,15,12.90
2009,04,24,15,16,12.80
2009,04,24,15,17,12.80
2009,04,24,15,18,12.80
2009,04,24,15,19,12.90
2009,04,24,15,20,12.90
2009,04,24,15,21,12.90
2009,04,24,15,22,12.90
2009,04,24,15,23,12.90
2009,04,24,15,24,12.90
2009,04,24,15,25,12.80
2009,04,24,15,26,12.80
2009,04,24,15,27,12.80
2009,04,24,15,28,12.80
2009,04,24,15,29,12.80
2009,04,24,15,30,12.80
2009,04,24,15,31,12.70
2009,04,24,15,32,12.70
2009,04,24,15,33,12.70
2009,04,24,15,34,12.80
2009,04,24,15,35,12.80
2009,04,24,15,36,12.80
2009,04,24,15,37,12.80
2009,04,24,15,38,12.80
2009,04,24,15,39,12.80
2009,04,24,15,40,12.80
2009,04,24,15,41,12.80
2009,04,24,15,42,12.90
2009,04,24,15,43,12.90
2009,04,24,15,44,12.80
2009,04,24,15,45,12.80
2009,04,24,15,46,12.90
2009,04,24,15,47,12.90
2009,04,24,15,48,13.00
2009,04,24,15,49,13.00
2009,04,24,15,50,13.10
2009,04,24,15,51,13.10
2009,04,24,15,52,13.10
2009,04,24,15,53,13.10
2009,04,24,15,54,13.20
2009,04,24,15,55,13.20
2009,04,24,15,56,13.20
2009,04,24,15,57,13.20
2009,04,24,15,58,13.20
2009,04,24,15,59,13.20
2009,04,24,16,00,13.20
2009,04,24,16,01,13.20
2009,04,24,16,02,13.20
2009,04,24,16,03,13.20
2009,04,24,16,04,13.20
2009,04,24,16,05,13.20
2009,04,24,16,06,13.20
2009,04,24,16,07,13.20
2009,04,24,16,08,13.20
2009,04,24,16,09,13.20
2009,04,24,16,10,13.20
2009,04,24,16,11,13.20
2009,04,24,16,12,13.10
2009,04,24,16,13,13.10
2009,04,24,16,14,13.10
2009,04,24,16,15,13.20
2009,04,24,16,16,13.20
2009,04,24,16,17,13.20
2009,04,24,16,18,13.20
2009,04,24,16,19,13.20
2009,04,24,16,20,13.30
2009,04,24,16,21,13.30
2009,04,24,16,22,13.40
2009,04,24,16,23,13.40
2009,04,24,16,24,13.40
2009,04,24,16,25,13.30
2009,04,24,16,26,13.40
2009,04,24,16,27,13.40
2009,04,24,16,28,13.50
2009,04,24,16,29,13.50
2009,04,24,16,30,13.50
2009,04,24,16,31,13.50
2009,04,24,16,32,13.40
2009,04,24,16,33,13.40
2009,04,24,16,34,13.40
2009,04,24,16,35,13.40
2009,04,24,16,36,13.30
2009,04,24,16,37,13.30
2009,04,24,16,38,13.30
2009,04,24,16,39,13.30
2009,04,24,16,40,13.20
2009,04,24,16,41,13.20
2009,04,24,16,42,13.20
2009,04,24,16,43,13.20
2009,04,24,16,44,13.30
2009,04,24,16,45,13.30
2009,04,24,16,46,13.30
2009,04,24,16,47,13.30
2009,04,24,16,48,13.20
2009,04,24,16,49,13.20
2009,04,24,16,50,13.20
2009,04,24,16,51,13.20
2009,04,24,16,52,13.20
2009,04,24,16,53,13.20
2009,04,24,16,54,13.20
2009,04,24,16,55,13.20
2009,04,24,16,56,13.20
2009,04,24,16,57,13.20
2009,04,24,16,58,13.20
2009,04,24,16,59,13.20
2009,04,24,17,00,13.20
2009,04,24,17,01,13.20
2009,04,24,17,02,13.20
2009,04,24,17,03,13.20
2009,04,24,17,04,13.20
2009,04,24,17,05,13.20
2009,04,24,17,06,13.30
2009,04,24,17,07,13.30
2009,04,24,17,08,13.20
2009,04,24,17,09,13.20
2009,04,24,17,10,13.10
2009,04,24,17,11,13.10
2009,04,24,17,12,13.10
2009,04,24,17,13,13.10
2009,04,24,17,14,13.10
2009,04,24,17,15,13.10
2009,04,24,17,16,13.10
2009,04,24,17,17,13.10
2009,04,24,17,18,13.00
2009,04,24,17,19,13.00
2009,04,24,17,20,13.00
2009,04,24,17,21,13.00
2009,04,24,17,22,13.00
2009,04,24,17,23,12.90
2009,04,24,17,24,12.90
2009,04,24,17,25,13.00
2009,04,24,17,26,13.00
2009,04,24,17,27,13.00
2009,04,24,17,28,13.10
2009,04,24,17,29,13.10
2009,04,24,17,30,13.10
2009,04,24,17,31,13.10
2009,04,24,17,32,13.10
2009,04,24,17,33,13.00
2009,04,24,17,34,13.00
2009,04,24,17,35,12.90
2009,04,24,17,36,12.90
2009,04,24,17,37,12.90
2009,04,24,17,38,12.90
2009,04,24,17,39,12.90
2009,04,24,17,40,12.90
2009,04,24,17,41,12.90
2009,04,24,17,42,12.90
2009,04,24,17,43,12.90
2009,04,24,17,44,12.90
2009,04,24,17,45,12.90
2009,04,24,17,46,12.90
2009,04,24,17,47,12.80
2009,04,24,17,48,12.80
2009,04,24,17,49,12.80